Back to catalog

FENGYUN 1C DEB

AliveSSO
NORAD 30500·DEBRIS·🇨🇳 China

Launched May 10, 1999 from Taiyuan Satellite Launch Center

Loading…

Next Passes (next 24 hours)

TLE

FreshSource: Space-Track

Epoch: Sep 14, 2026, 05:40 UTC

1 30500U 99025AHN 26257.23644172  .00002949  00000-0  11869-2 0  9995
2 30500  99.0738   3.6740 0061231  42.1889 347.9077 14.27846658  6061

Track FENGYUN 1C DEB in real time with AllMySat

Download on the App Store